Regional Weather Roundup
Issued by NWS Sioux Falls, SD

Home | Current Version | Previous Version | Text Only | Print | Product List | Glossary On
Versions: 1 2 3 4 5 6 7 8 9 10 11 12 13 14 15 16 17 18 19 20 21 22 23 24 25 26 27 28 29 30 31 32 33 34 35 36 37 38 39 40 41 42 43 44 45 46 47 48 49 50
000
ASUS43 KFSD 260810
RWRFSD

WEATHER ROUNDUP FOR SE SOUTH DAKOTA/SW MINNESOTA/NW IOWA
NATIONAL WEATHER SERVICE SIOUX FALLS SD
200 AM CST MON JAN 26 2015

NOTE: "FAIR" INDICATES FEW OR NO CLOUDS BELOW 12,000 FEET WITH NO
SIGNIFICANT WEATHER AND OR OBSTRUCTIONS TO VISIBILITY.


SDZ038>040-050-052>070-260900-
SOUTHEAST SOUTH DAKOTA

CITY           SKY/WX    TMP DP  RH WIND       PRES   REMARKS
CHAMBERLAIN    CLEAR     35  30  80 W9        29.86F WCI  28
HURON          CLEAR     32  29  88 SW9       29.83F WCI  24
MADISON        FAIR      32  32 100 SW13      29.85S WCI  22
MITCHELL       CLEAR     33  30  88 S8        29.86F WCI  26
SIOUX FALLS    FAIR      33  31  92 SW9       29.87F WCI  25
WINNER         FAIR      43  33  68 W12       29.89F
YANKTON        CLEAR     32  28  86 S5        29.91F WCI  27
$$

MNZ071-072-080-081-089-090-097-098-260900-
SOUTHWEST MINNESOTA

CITY           SKY/WX    TMP DP  RH WIND       PRES   REMARKS
FAIRMONT       CLOUDY    30  25  80 S12       29.92R WCI  21
JACKSON        CLOUDY    32  30  93 S6        29.91R WCI  26
LUVERNE        PTCLDY    32  30  93 S8        29.88F WCI  25
MARSHALL       PTCLDY    32  27  80 W5        29.88S WCI  27
MONTEVIDEO     CLOUDY    32  32 100 SW6       29.87F WCI  26
PIPESTONE      MOCLDY    30  30 100 SW12      29.84F WCI  21
REDWOOD FALLS  CLOUDY    32  29  88 S12       29.87F WCI  23
TRACY          PTCLDY    33  31  93 SW14      29.86F WCI  23
WINDOM         PTCLDY    30  30 100 CALM      29.88S
WORTHINGTON    PTCLDY    30  28  93 SW14      29.88F WCI  20
$$

IAZ001>003-012>014-020>022-031-032-NEZ013-014-SDZ071-260900-
NORTHWEST IOWA

CITY           SKY/WX    TMP DP  RH WIND       PRES   REMARKS
CHEROKEE       PTCLDY    30  30 100 S7        29.95F WCI  23
DENISON        CLOUDY    30  32 100 SW7       29.98R WCI  23
ESTHERVILLE    CLOUDY    30  29  96 S14       29.90F WCI  19
LE MARS        PTCLDY    32  32 100 S10       29.93F WCI  24
ORANGE CITY    MOCLDY    32  30  93 SW12      29.91F WCI  23
SHELDON        MOCLDY    32  32 100 S10       29.90F WCI  24
SIOUX CITY     PTCLDY    32  29  88 S9        29.96F WCI  24
SPENCER        PTCLDY    32  29  88 S13       29.90F WCI  22
STORM LAKE     PTCLDY    30  30 100 SW9       29.95F WCI  22
$$

ABBREVIATIONS USED IN REMARKS
   TC - TEMPERATURE IN CELSIUS
  WCI - WIND CHILL INDEX
   HX - HEAT INDEX
  VSB - VISIBILITY



USA.gov is the U.S. government's official web portal to all federal, state and local government web resources and services.